Printer-friendly version

IAU Minor Planet Center

Minor Planet Center

MPEC 2004-H57 : COMET P/2004 F3 (NEAT)

The following Minor Planet Electronic Circular may be linked-to from your own Web pages, but must not otherwise be redistributed electronically.


Read MPEC 2004-H56 Read MPEC 2004-H58


M.P.E.C. 2004-H57                                Issued 2004 Apr. 23, 16:06 UT

     The Minor Planet Electronic Circulars contain information on unusual
         minor planets and routine data on comets.  They are published
   on behalf of Commission 20 of the International Astronomical Union by the
          Minor Planet Center, Smithsonian Astrophysical Observatory,
                          Cambridge, MA 02138, U.S.A.

         Supported in part by the Steven and Michele Kirsch Foundation
             Prepared using the Tamkin Foundation Computer Network

                              MPC@CFA.HARVARD.EDU
          URL http://cfa-www.harvard.edu/iau/mpc.html  ISSN 1523-6714

                            COMET P/2004 F3 (NEAT)

Observations:
    PK04F030  C2004 04 09.08337 13 35 38.19 +11 50 33.1                 EH057A46
    PK04F030  C2004 04 09.08431 13 35 38.15 +11 50 33.2                 EH057A46
    PK04F030  C2004 04 09.08525 13 35 38.12 +11 50 33.2                 EH057A46
    PK04F030  C2004 04 09.08715 13 35 38.01 +11 50 33.5                 EH057A46
    PK04F030  C2004 04 09.08810 13 35 37.98 +11 50 33.7                 EH057A46
    PK04F030  C2004 04 09.08905 13 35 37.94 +11 50 33.9                 EH057A46
    PK04F030  C2004 04 14.59635 13 31 37.29 +12 01 32.8          15.6 T EH057D70
    PK04F030  C2004 04 14.60030 13 31 37.11 +12 01 33.5          15.6 T EH057D70
    PK04F030  C2004 04 14.60347 13 31 36.98 +12 01 33.0          15.6 T EH057D70
    PK04F030  C2004 04 14.84549 13 31 26.38 +12 01 54.1          16.1 T EH057561
    PK04F030  C2004 04 14.85000 13 31 26.19 +12 01 54.8          16.1 T EH057561
    PK04F030  C2004 04 14.85394 13 31 26.01 +12 01 55.1          15.7 T EH057561
    PK04F030  C2004 04 14.87912 13 31 24.86 +12 01 58.4          14.7 N EH057J78
    PK04F030  C2004 04 14.91111 13 31 23.43 +12 02 00.4                 EH057048
    PK04F030  C2004 04 14.91186 13 31 23.41 +12 02 00.3                 EH057048
    PK04F030  C2004 04 14.91262 13 31 23.35 +12 02 00.5                 EH057048
    PK04F030  C2004 04 14.91639 13 31 23.21 +12 02 00.5                 EH057048
    PK04F030  C2004 04 14.91714 13 31 23.14 +12 02 00.7                 EH057048
    PK04F030  C2004 04 14.94358 13 31 21.95 +12 02 02.8          15.8 T EH057215
    PK04F030  C2004 04 14.94409 13 31 21.92 +12 02 02.8          15.8 T EH057215
    PK04F030  C2004 04 14.94448 13 31 21.92 +12 02 02.9          15.8 T EH057215
    PK04F030  C2004 04 15.24756 13 31 08.67 +12 02 30.6          16.1 T EH057704
    PK04F030  C2004 04 15.25838 13 31 08.14 +12 02 31.8          17.8 T EH057704
    PK04F030  C2004 04 15.26928 13 31 07.64 +12 02 33.6          17.6 T EH057704
    PK04F030  C2004 04 15.28026 13 31 07.13 +12 02 34.4          18.1 T EH057704
    PK04F030  C2004 04 15.29116 13 31 06.47 +12 02 34.9          17.7 T EH057704
    PK04F030  C2004 04 16.19653 13 30 26.73 +12 03 47.5          15.7 T EH057785
    PK04F030  C2004 04 16.23009 13 30 25.20 +12 03 49.7          15.4 T EH057785
    PK04F030  C2004 04 16.25961 13 30 23.85 +12 03 51.9          15.7 T EH057785
    PK04F030  C2004 04 16.62778 13 30 07.72 +12 04 18.8          16.5 T EH057372
    PK04F030  C2004 04 16.95769 13 29 53.24 +12 04 42.3          15.2 N EH057J78
    PK04F030  C2004 04 16.96132 13 29 53.09 +12 04 42.6          15.2 N EH057J78
    PK04F030  C2004 04 16.96500 13 29 52.95 +12 04 42.9          15.2 N EH057J78
    PK04F030  C2004 04 17.95669 13 29 09.27 +12 05 45.1          15.1 N EH057939
    PK04F030  C2004 04 17.96133 13 29 09.06 +12 05 45.1          15.1 N EH057939
    PK04F030  C2004 04 17.96596 13 29 08.85 +12 05 45.4          15.1 N EH057939
    PK04F030  C2004 04 18.88907 13 28 28.49 +12 06 34.3          15.2 N EH057J78
    PK04F030  C2004 04 18.88990 13 28 28.46 +12 06 34.4          15.2 N EH057J78
    PK04F030  C2004 04 18.89106 13 28 28.40 +12 06 34.3          15.2 N EH057J78
    PK04F030  C2004 04 18.89743 13 28 28.11 +12 06 35.2          15.2 N EH057J78
    PK04F030  C2004 04 18.89846 13 28 28.06 +12 06 35.3          15.2 N EH057J78
    PK04F030  C2004 04 19.23109 13 28 13.39 +12 06 48.6          15.2 T EH057785
    PK04F030  C2004 04 19.24715 13 28 12.56 +12 06 51.7          15.0 T EH057785
    PK04F030  C2004 04 19.91905 13 27 43.40 +12 07 17.2          15.2 N EH057213
    PK04F030  C2004 04 19.92008 13 27 43.35 +12 07 17.1          15.2 N EH057213
    PK04F030  C2004 04 19.92108 13 27 43.30 +12 07 17.0          15.2 N EH057213
    PK04F030  C2004 04 19.92299 13 27 43.36 +12 07 17.8          15.2 N EH057J97
    PK04F030  C2004 04 19.92561 13 27 43.18 +12 07 18.0          15.2 N EH057J97
    PK04F030  C2004 04 19.92806 13 27 43.04 +12 07 18.3          15.2 N EH057J97
    PK04F030  C2004 04 20.52606 13 27 17.05 +12 07 38.2                 EH057D70
    PK04F030  C2004 04 20.53655 13 27 16.55 +12 07 38.0                 EH057D70
    PK04F030  C2004 04 20.53962 13 27 16.46 +12 07 38.4          15.6 T EH057D70
    PK04F030  C2004 04 20.65237 13 27 11.40 +12 07 41.6          15.8 T EH057360
    PK04F030  C2004 04 20.65464 13 27 11.30 +12 07 41.7                 EH057360
    PK04F030  C2004 04 20.85708 13 27 02.78 +12 07 47.6          15.0 N EH057J76
    PK04F030  C2004 04 20.86205 13 27 02.57 +12 07 47.4          15.2 N EH057J76
    PK04F030  C2004 04 20.86365 13 27 02.48 +12 07 47.3          15.1 N EH057J76
    PK04F030  C2004 04 20.89390 13 27 01.12 +12 07 47.9          15.3 N EH057J78
    PK04F030  C2004 04 20.89465 13 27 01.08 +12 07 48.2          15.2 N EH057J78
    PK04F030  C2004 04 20.89539 13 27 01.04 +12 07 48.5          15.2 N EH057J78
    PK04F030  C2004 04 21.04076 13 26 54.52 +12 07 51.4          15.2 N EH057945
    PK04F030  C2004 04 21.04456 13 26 54.36 +12 07 51.5          15.2 N EH057945
    PK04F030  C2004 04 21.04735 13 26 54.23 +12 07 51.5          15.2 N EH057945
    PK04F030  C2004 04 21.04994 13 26 54.12 +12 07 51.5          15.2 N EH057945
    PK04F030  C2004 04 21.05274 13 26 54.00 +12 07 51.6          15.1 N EH057945
    PK04F030  C2004 04 21.93096 13 26 16.19 +12 08 08.0                 EH057170
    PK04F030  C2004 04 21.93640 13 26 15.95 +12 08 08.2                 EH057170

Observer details:
048 Hradec Kralove.  Observer M. Lehky.  0.40-m f/5 reflector + CCD.
170 Observatorio de Begues.  Observer J. Manteca.  0.36-m f/6.3 Schmidt
    Cassegrain + CCD.
213 Observatorio Montcabre.  Observer R. Naves.  Measurer M. Campas.  0.30-m
    f/5.5 Schmidt-Cassegrain + CCD.
215 Buchloe.  Observer W. Hasubick.  0.44-m f/4.6 reflector + CCD.
360 Kuma Kogen.  Observer A. Nakamura.  0.60-m f/5.8 Ritchey-Chretien + CCD.
372 Geisei.  Observer T. Seki.  0.60-m f/3.5 reflector.
561 Piszkesteto.  Observer J. Kelemen.  0.60-m f/3 Schmidt + CCD.
704 Lincoln Laboratory ETS, New Mexico.  Observers M. Blythe, F. Shelly,
    M. Bezpalko, R. Huber, L. Manguso, D. Torres, R. Kracke, M. McCleary,
    H. Stange, A. Milner.  Measurers J. Stuart, R. Sayer, J. Evans, J. Kommers.
    1.0-m f/2.15 reflector + CCD.
785 Fitz-Randolph Observatory, Princeton.  Observer J. Maffei.  0.91-m f/13.6
    Cassegrain + CCD.
939 Observatorio Rodeno.  Observer J. Castellano.  0.20-m f/10
    Schmidt-Cassegrain + CCD.
945 Observatorio Monte Deva.  Observer J. R. Vidal.  0.36-m f/4.48
    Schmidt-Cassegrain + CCD.
A46 Lelekovice.  Observer K. Hornoch.  0.35-m f/4.7 reflector + CCD.
D70 Tosa.  Observer S. Shimomoto.  0.20-m f/6.3 Schmidt-Cassegrain + CCD.
J76 La Murta.  Observer S. Pastor y J. A. Reyes.  0.40-m f/3.3
    Schmidt-Cassegrain + CCD.
J78 Murcia.  Observer J. Sanchez.  0.25-m f/3.3 Schmidt-Cassegrain + CCD.
J97 Alginet.  Observer T. Climent G.  0.25-m f/4 Schmidt-Cassegrain + CCD.

Orbital elements:
    P/2004 F3 (NEAT)
T 2005 Jan. 4.1831 TT                                   MPC
q   2.864473             (2000.0)            P               Q
n   0.1223897      Peri.  176.0875      -0.2575240      +0.9277227
a   4.017657       Node    78.8357      -0.8938447      -0.1224943
e   0.287029       Incl.   15.9870      -0.3670464      -0.3525984
P   8.05
From 252 observations 2004 Mar. 15-Apr. 21.

Brian G. Marsden             (C) Copyright 2004 MPC           M.P.E.C. 2004-H57

Read MPEC 2004-H56 Read MPEC 2004-H58


Our Web policy. Index to the CBAT/MPC/ICQ pages.


Valid HTML 4.01!